Location: Unspecified
(0.0000°N, 0.0000°E)
Time: 07:07:36
(UTC+00:00)

N. Korean satellite - Pass Details

Date: 18 September 2021
Orbit: 448 x 499 km, 97.3° (Epoch: 17 September)

Event Time Altitude Azimuth Distance (km) Brightness Sun altitude
Rises 05:23:50 0° 351° (N) 2,518 10.1 -7.6°
Reaches altitude 10° 05:26:06 10° 337° (NNW) 1,653 9.1 -7.0°
Maximum altitude 05:29:04 25° 281° (W) 1,014 7.6 -6.3°
Drops below altitude 10° 05:32:06 10° 224° (SW) 1,681 8.9 -5.5°
Sets 05:34:26 0° 210° (SSW) 2,572 9.9 -4.9°
